Regional Weather Roundup
Issued by NWS Jackson, KY

Home | Current Version | Previous Version | Graphics & Text | Print | Product List | Glossary On
Versions: 1 2 3 4 5 6 7 8 9 10 11 12 13 14 15 16 17 18 19 20 21 22 23 24 25 26 27 28 29 30 31 32 33 34 35 36 37 38 39 40 41 42 43 44 45 46 47 48 49 50
000
ASUS43 KJKL 250910
RWRJKL

EAST KENTUCKY HOURLY WEATHER ROUNDUP
NATIONAL WEATHER SERVICE JACKSON KY
500 AM EDT THU AUG 25 2016

NOTE: "FAIR" INDICATES FEW OR NO CLOUDS BELOW 12,000 FEET WITH
NO SIGNIFICANT WEATHER AND/OR OBSTRUCTIONS TO VISIBILITY.

* THESE REPORTS ARE NOT UNDER NWS QUALITY CONTROL AND MAY NOT
  REPORT WEATHER SUCH AS PRECIPITATION AND FOG.

KYZ079-080-083-085-087-088-110-112-115-119-120-251000
...EASTERN KENTUCKY...

CITY           SKY/WX    TMP DP  RH WIND       PRES   REMARKS
JACKSON        CLEAR     73  69  87 CALM      30.17R
LONDON         CLEAR     70  67  90 CALM      30.18R
SOMERSET*      CLEAR     72  72 100 CALM      30.17R
MONTICELLO*    CLEAR    N/A N/A N/A W12       30.18R
WILLIAMSBURG*  SUNNY     68  68 100 CALM      30.18R
MIDDLESBORO*   CLEAR     67  67 100 CALM      30.20R
HARLAN APT*    CLOUDY    68  68 100 CALM      30.21R
PIKE CO APT*     N/A     72  71  95 SE3       30.18R
BIG SANDY APT* SUNNY     73  71  92 S3        30.16S
MOREHEAD APT*  PTSUNNY   75  70  83 SW9       30.14S
ASHLAND*       CLEAR     73  72  94 CALM      30.08S
$$

KYZ035-036-041-042-044-050-067-078-099-251000
...CENTRAL KENTUCKY...

CITY           SKY/WX    TMP DP  RH WIND       PRES   REMARKS
MT STERLING*   CLEAR     72  72 100 SW5       30.15S
FLEMING/MASON* CLEAR     73  70  92 SW7       30.12S
DANVILLE*      CLEAR     72  70  94 S6        30.15S
LEXINGTON      CLEAR     73  70  90 S7        30.13S
FRANKFORT      CLEAR     75  71  87 SW7       30.10F
LOUISVILLE     PTCLDY    80  73  79 SW7       30.09S
LEBANON*         N/A     75  72  88 S7        30.13F
GLASGOW*       CLEAR     72  72 100 CALM      30.13S
BOWLING GREEN  CLEAR     74  72  93 SE3       30.12S
$$

KYZ091>093-OHZ055-061-077-WVZ005-015-034-035-042-251000
...SOUTHERN OHIO/WEST VIRGINIA...

CITY           SKY/WX    TMP DP  RH WIND       PRES   REMARKS
COVINGTON      CLOUDY    77  74  90 SW6       30.09S
COLUMBUS       CLOUDY    72  70  93 W3        30.07R
DAYTON         LGT RAIN  75  73  93 SW6       30.07F
WILMINGTON     CLEAR     75  72  90 SW9       30.08R
HUNTINGTON     CLOUDY    75  71  87 S7        30.11R
CHARLESTON     CLOUDY    74  68  81 S6        30.12S
PINEVILLE*     CLOUDY    66  63  90 MISG      30.24S FOG
BECKLEY        PTCLDY    67  64  90 CALM      30.22F
BLUEFIELD      CLOUDY    66  63  90 W6        30.25F
LOGAN CO APT*    N/A     72  68  88 CALM      30.16S
$$

VAZ002-007-008-TNZ017-027-036-066-071-251000
...SOUTHWEST VIRGINIA/EAST TENNESSEE...

CITY           SKY/WX    TMP DP  RH WIND       PRES   REMARKS
WISE*          PTCLDY    66  64  94 SW5       30.28R
JONESVILLE*      N/A     68  68 100 CALM      30.23R FOG
ABINGDON*      PTCLDY    68  68  99 CALM      30.24S
BRISTOL        PTCLDY    67  66  97 CALM      30.21R FOG
MORRISTOWN*    CLOUDY    72  70  94 CALM      30.19S
SEVIERVILLE*   MOSUNNY   72  70  94 CALM      30.19R
KNOXVILLE      PTCLDY    72  69  90 CALM      30.18R
OAK RIDGE      CLEAR     74  71  91 CALM      30.20R
CROSSVILLE     CLEAR     70  68  93 CALM      30.23R
NASHVILLE      PTCLDY    76  71  85 CALM      30.14R
$$

...KEY TO REMARKS...
VSB - VISIBILITY IN MILES
WCI - WIND CHILL INDEX
HX  - HEAT INDEX

$$



USA.gov is the U.S. government's official web portal to all federal, state and local government web resources and services.